This is the latest recevied weather packets stored in our database for station/object KC3DGM. If no packets are shown the sender has not sent any weather packets the latest 10 day(s).
| Time | Temp. | Humidity | Pressure | Rain* | Wind** | Luminosity | Snow |
|---|---|---|---|---|---|---|---|
| 1777376352 | 12.22° C | 81% | 984.2 hPa | 0 mm | - | 34 W/m² | - |
| 1777376052 | 12.22° C | 81% | 984.1 hPa | 0 mm | - | 26 W/m² | - |
| 1777375752 | 12.22° C | 81% | 984 hPa | 0 mm | - | 25 W/m² | - |
| 1777375448 | 12.22° C | 82% | 983.9 hPa | 0 mm | - | 24 W/m² | - |
| 1777375144 | 12.22° C | 82% | 983.8 hPa | 0 mm | - | 22 W/m² | - |
| 1777374844 | 11.67° C | 82% | 983.6 hPa | 0 mm | - | 17 W/m² | - |
| 1777374540 | 11.67° C | 83% | 983.4 hPa | 0 mm | - | 12 W/m² | - |
| 1777374237 | 11.67° C | 83% | 983 hPa | 0 mm | - | 10 W/m² | - |
| 1777373933 | 11.67° C | 84% | 982.8 hPa | 0 mm | - | 8 W/m² | - |
| 1777373630 | 11.67° C | 84% | 982.4 hPa | 0 mm | - | 5 W/m² | - |
| 1777373327 | 11.67° C | 84% | 982.3 hPa | 0 mm | - | 3 W/m² | - |
| 1777373022 | 11.67° C | 85% | 982.4 hPa | 0 mm | - | 2 W/m² | - |
| 1777372718 | 11.67° C | 86% | 982.6 hPa | 0 mm | - | 2 W/m² | - |
| 1777372416 | 11.67° C | 86% | 982.4 hPa | 0 mm | - | 0 W/m² | - |
| 1777372115 | 11.11° C | 86% | 982.4 hPa | 0 mm | - | 0 W/m² | - |
| 1777371811 | 11.11° C | 88% | 981.9 hPa | 0 mm | - | 0 W/m² | - |
| 1777371508 | 11.11° C | 88% | 981.9 hPa | 0 mm | - | 0 W/m² | - |
| 1777371204 | 11.11° C | 88% | 981.8 hPa | 0 mm | - | 0 W/m² | - |
| 1777370901 | 11.11° C | 89% | 981.5 hPa | 0 mm | - | 0 W/m² | - |
| 1777370596 | 11.11° C | 89% | 982.6 hPa | 0 mm | - | 0 W/m² | - |
| 1777370293 | 11.11° C | 90% | 983.2 hPa | 0 mm | - | 0 W/m² | - |
| 1777369988 | 11.11° C | 90% | 983.6 hPa | 0 mm | - | 0 W/m² | - |
| 1777369685 | 11.11° C | 91% | 984 hPa | 0 mm | - | 0 W/m² | - |
| 1777369385 | 11.11° C | 90% | 984.8 hPa | 0 mm | - | 0 W/m² | - |
| 1777369081 | 11.11° C | 90% | 984.8 hPa | 0 mm | - | 0 W/m² | - |
* Rain latest hour (hover to see other rain measurements)
** Current wind speed in m/s (hover to see current wind gust speed)